sat.trackr.live / text

‹ back to catalog

STARLINK-36812

NORAD 67968 · 2026-038H

PAYLOAD ACTIVE UNKNOWN

§ Identity

Operator
Country
US
Launch date
2026-02-25
Launch site
AFWTR
Launch vehicle
Mass (kg)
RCS (m²)

Purposes: comms

External: N2YO · Heavens-Above · Gunter

§ Orbital elements

Epoch: 2026-09-19T00:14:58.741440Z

Period
93.91 min
Inclination
97.2865°
Eccentricity
0.0002495
Mean motion
15.33452935 rev/d
Perigee alt
463.8 km
Apogee alt
467.2 km
Semi-major
6,843.7 km
B*
7.0880e-4
RAAN
270.3498°
Arg perigee
87.0933°
Mean anomaly
273.0596°
Rev number
3,286

§ Raw data

STARLINK-368121 67968U 26038H   26262.01040210  .00022884  00000+0  70880-3 0  99902 67968  97.2865 270.3498 0002495  87.0933 273.0596 15.33452935 32869

JSON: /api/v1/satellites/67968 · /tle

For live sub-satellite position, see the globe view (requires WebGL).

§ Visibility from observer

Set your observer location to see the next 7 days of passes ≥ 10°. The values pass through the URL so the page stays shareable.

No JS? Fill the form by hand. The geolocation button needs JavaScript.